User: anonymous   Login
Location: eljas
(40.1958°N, 6.8661°W)
Time: 01:28:09
(UTC+02:00)
Language:

Okean O Rocket - Orbit

View from above orbital plane
View from above orbital plane
View from above satellite
View from above satellite

Ground track
Ground track

The orbit data is extracted from the following two-line orbital elements,

1 25861U 99039B   16243.87492203  .00000060  00000-0  15534-4 0  9991
2 25861  98.0616 207.9845 0014496 299.4964  88.9760 14.78342288922880
Epoch (UTC): 30 August 2016 20:59:53
Eccentricity: 0.0014496
inclination: 98.0616°
perigee height: 624 km
apogee height: 645 km
right ascension of ascending node: 207.9845°
argument of perigee: 299.4964°
revolutions per day: 14.78342288
mean anomaly at epoch: 88.9760°
orbit number at epoch: 92288

The dashed part of the orbit path shows where the satellite is in the earth's shadow,  

DLR